This is the latest recevied weather packets stored in our database for station/object N0TKN. If no packets are shown the sender has not sent any weather packets the latest 10 day(s).
| Time | Temp. | Humidity | Pressure | Rain* | Wind** | Luminosity | Snow |
|---|---|---|---|---|---|---|---|
| 1777982716 | 9.44° C | 89% | 1009.7 hPa | 0 mm | - | 21 W/m² | - |
| 1777982116 | 9.44° C | 91% | 1009.5 hPa | 0.25 mm | - | 32 W/m² | - |
| 1777981516 | 9.44° C | 90% | 1009.2 hPa | 0.76 mm | - | 17 W/m² | - |
| 1777980916 | 9.44° C | 90% | 1008.8 hPa | 0.76 mm | - | 4 W/m² | - |
| 1777980317 | 9.44° C | 91% | 1007.9 hPa | 1.78 mm | - | 2 W/m² | - |
| 1777979717 | 8.89° C | 93% | 1008.2 hPa | 2.54 mm | - | 1 W/m² | - |
| 1777979117 | 9.44° C | 95% | 1008.4 hPa | 3.05 mm | - | 0 W/m² | - |
| 1777978517 | 9.44° C | 96% | 1008 hPa | 4.83 mm | - | 0 W/m² | - |
| 1777977917 | 8.89° C | 96% | 1009.2 hPa | 5.08 mm | - | 0 W/m² | - |
| 1777977317 | 9.44° C | 96% | 1009.3 hPa | 4.83 mm | - | 0 W/m² | - |
| 1777976717 | 9.44° C | 95% | 1009.8 hPa | 3.81 mm | - | 0 W/m² | - |
| 1777976117 | 9.44° C | 95% | 1011.2 hPa | 3.56 mm | - | 0 W/m² | - |
| 1777975518 | 10° C | 93% | 1010.1 hPa | 4.32 mm | - | 0 W/m² | - |
| 1777974918 | 10.56° C | 87% | 1010.1 hPa | 2.54 mm | - | 0 W/m² | - |
| 1777974318 | 11.11° C | 85% | 1009.3 hPa | 1.78 mm | - | 0 W/m² | - |
| 1777973718 | 11.67° C | 87% | 1008.8 hPa | 2.29 mm | - | 0 W/m² | - |
| 1777973118 | 11.67° C | 89% | 1008.4 hPa | 2.54 mm | - | 0 W/m² | - |
| 1777972515 | 12.78° C | 89% | 1007.7 hPa | 2.54 mm | - | 0 W/m² | - |
| 1777971916 | 13.33° C | 88% | 1007.6 hPa | 1.27 mm | - | 0 W/m² | - |
| 1777971316 | 13.89° C | 87% | 1006.7 hPa | 1.27 mm | - | 0 W/m² | - |
| 1777970716 | 13.89° C | 89% | 1006.3 hPa | 1.27 mm | - | 0 W/m² | - |
| 1777970116 | 15° C | 85% | 1006.4 hPa | 0.76 mm | - | 0 W/m² | - |
| 1777969516 | 15.56° C | 81% | 1005.8 hPa | 1.02 mm | - | 0 W/m² | - |
| 1777968916 | 16.11° C | 81% | 1005.1 hPa | 1.27 mm | - | 0 W/m² | - |
| 1777968317 | 16.67° C | 83% | 1005 hPa | 2.03 mm | - | 0 W/m² | - |
* Rain latest hour (hover to see other rain measurements)
** Current wind speed in m/s (hover to see current wind gust speed)